SB KEPS @ AMSAT $ORB13302.N 2Line Orbital Elements 13302.AMSAT
HR AMSAT ORBITAL ELEMENTS FOR AMATEUR SATELLITES IN NASA FORMAT FROM WA5QGD FORT WORTH,TX October 29, 2013 BID: ORB13302.N
DECODE 2-LINE ELSETS WITH THE FOLLOWING KEY: 1 AAAAAU 00 0 0 BBBBB.BBBBBBBB .CCCCCCCC 00000-0 00000-0 0 DDDZ 2 AAAAA EEE.EEEE FFF.FFFF GGGGGGG HHH.HHHH III.IIII JJ.JJJJJJJJKKKKKZ KEY: A-CATALOGNUM B-EPOCHTIME C-DECAY D-ELSETNUM E-INCLINATION F-RAAN G-ECCENTRICITY H-ARGPERIGEE I-MNANOM J-MNMOTION K-ORBITNUM Z-CHECKSUM
TO ALL RADIO AMATEURS BT
AO-07 1 07530U 74089B 13302.18085772 -.00000039 00000-0 27451-4 0 8108 2 07530 101.4461 286.8886 0012157 027.8073 033.6522 12.53599430782574 FO-29 1 24278U 96046B 13302.13503794 .00000066 00000-0 10223-3 0 2300 2 24278 098.5377 342.6781 0350873 176.8391 248.8487 13.53007697849425 SO-33 1 25509U 98061B 13301.68669806 .00000893 00000-0 16220-3 0 6140 2 25509 031.4356 031.7101 0351063 246.7561 239.6314 14.29190600784006 RS-22 1 27939U 03042A 13302.63918213 .00001016 00000-0 19931-3 0 8994 2 27939 097.7983 123.5006 0014124 117.5039 242.7597 14.64631177538978 VO-52 1 28650U 05017B 13302.51678190 .00002919 00000-0 35254-3 0 5652 2 28650 097.5639 314.2254 0025673 194.8619 325.4162 14.84246416459005 HO-68 1 36122U 09072B 13302.65812279 -.00000044 00000-0 00000 0 0 158 2 36122 100.2875 356.2078 0007761 046.8664 313.3096 13.16308030186101 UO-11 1 14781U 84021B 13302.15436862 .00001419 00000-0 18954-3 0 3236 2 14781 097.8869 001.4401 0008551 204.3191 155.7619 14.81063513593765 AO-16 1 20439U 90005D 13302.44336025 .00000285 00000-0 12150-3 0 8736 2 20439 098.4840 239.4222 0012036 119.9633 013.1657 14.32220368241451 LO-19 1 20442U 90005G 13302.10007185 .00000292 00000-0 12347-3 0 8102 2 20442 098.4539 240.4497 0013071 111.8238 315.0063 14.32428373241606 AO-27 1 22825U 93061C 13302.09708573 .00000252 00000-0 11584-3 0 5139 2 22825 098.6335 244.7897 0007406 251.9959 173.0459 14.29603017 47769 IO-26 1 22826U 93061D 13302.43585647 .00000289 00000-0 12941-3 0 2688 2 22826 098.6279 245.3855 0008015 243.3675 263.9250 14.29891712 47944 GO-32 1 25397U 98043D 13301.82325161 .00000077 00000-0 52454-4 0 1930 2 25397 098.4347 263.8902 0000313 196.6516 221.1903 14.23368054794952 NO-44 1 26931U 01043C 13302.42087263 .00000316 00000-0 15434-3 0 4546 2 26931 067.0521 273.4582 0007132 264.2888 265.2369 14.29974597630612 SO-50 1 27607U 02058C 13301.79864564 .00000729 00000-0 13293-3 0 2086 2 27607 064.5573 217.3293 0032856 110.1628 345.5863 14.73140947583396 CO-55 1 27844U 03031E 13302.80426868 .00000406 00000-0 20628-3 0 7756 2 27844 098.7010 309.9274 0009288 214.8396 192.5897 14.21294156535858 CO-57 1 27848U 03031J 13302.56462338 .00000350 00000-0 18160-3 0 7177 2 27848 098.7100 309.2759 0009072 222.0383 263.0306 14.21010197535749 AO-51 1 28375U 04025K 13301.83050366 .00000315 00000-0 10709-3 0 6890 2 28375 098.2199 252.0413 0082574 332.5865 078.8678 14.41186822490587 CP3 1 31129U 07012N 13302.48074991 .00002601 00000-0 58925-3 0 5860 2 31129 097.9101 287.6343 0099783 010.2488 107.3140 14.53890755346508 CO-65 1 32785U 08021C 13302.13894287 .00003020 00000-0 36651-3 0 7736 2 32785 097.7347 355.7554 0013499 223.1686 162.8813 14.84213280297743 PRISM 1 33493U 09002B 13302.85322597 .00004818 00000-0 54567-3 0 3145 2 33493 098.2320 104.4287 0018969 113.8244 246.4957 14.86775419257924 SOHLA-1 1 33496U 09002E 13302.82448492 .00000820 00000-0 14380-3 0 1841 2 33496 098.1491 058.6065 0005483 247.7766 269.6519 14.70413386255656 SO-67 1 35870U 09049F 13302.83636751 .00007153 00000-0 26060-3 0 5600 2 35870 097.1825 326.8112 0001667 134.5620 345.3657 15.28482095228819 TISAT-1 1 36799U 10035E 13302.87484920 .00002770 00000-0 34008-3 0 5815 2 36799 098.0291 028.3659 0014207 356.3655 003.7449 14.83838509178546 STUDSAT 1 36801U 10035G 13301.08972198 .00012141 00000-0 12620-2 0 7034 2 36801 098.0425 031.0599 0010527 337.9496 080.6568 14.90006961178499 ALMASAT-1 1 38078U 12006B 13302.83187523 .00050331 00000-0 11726-2 0 7462 2 38078 069.4760 247.0699 0669291 333.6182 023.2155 14.31737165 88468 XATCOBEO 1 38082U 12006F 13302.77424936 .00113313 54157-5 17922-2 0 6260 2 38082 069.4703 204.2743 0495831 310.1288 045.6905 14.76407993 89632 SOMP 1 39135U 13015F 13301.89258152 .00004639 00000-0 37263-3 0 3584 2 39135 064.8776 148.4435 0003111 314.1596 045.9266 15.01205234 28897 CUBEBUG-1 1 39153U 13018D 13302.85377714 .00001393 00000-0 20595-3 0 5317 2 39153 098.0643 018.5438 0018609 015.5540 344.6236 14.76709111 27550 ESTCUBE-1 1 39161U 13021C 13302.75117233 .00001325 00000-0 23327-3 0 5015 2 39161 098.1188 020.2452 0011128 050.4476 309.7713 14.69195580 25758 NOAA-10 1 16969U 86073A 13302.48465194 .00000198 00000-0 97783-4 0 5470 2 16969 098.5347 327.3304 0012049 206.8832 287.1925 14.27674518411102 NOAA-11 1 19531U 88089A 13302.29294772 .00000103 00000-0 75598-4 0 5700 2 19531 098.7031 022.1102 0010568 234.1443 125.8750 14.15034047295089 NOAA-12 1 21263U 91032A 13302.46221385 .00000135 00000-0 75369-4 0 230 2 21263 098.6869 326.7207 0014074 185.1776 306.4788 14.25593421167680 MET-3/5 1 21655U 91056A 13302.78823962 .00000486 00000-0 12305-2 0 8196 2 21655 082.5549 159.2093 0013924 150.0103 210.1820 13.17045746 67658 MET-2/21 1 22782U 93055A 13302.17728067 -.00000004 00000-0 -16584-4 0 8814 2 22782 082.5500 356.6054 0022699 190.2085 192.6019 13.83714951 18172 OKEAN-4 1 23317U 94066A 13302.17554208 .00002358 00000-0 27453-3 0 3617 2 23317 082.5371 284.3613 0022445 140.7344 223.9735 14.84707351 28822 NOAA-14 1 23455U 94089A 13302.46888228 .00000071 00000-0 60477-4 0 5019 2 23455 098.7967 024.8285 0008857 341.5589 150.4289 14.13926044971346 NOAA-15 1 25338U 98030A 13302.46327994 .00000303 00000-0 14770-3 0 9284 2 25338 098.7362 292.0207 0011801 098.5253 054.6362 14.25281668803979 RESURS 1 25394U 98043A 13302.54912340 .00000064 00000-0 45607-4 0 5042 2 25394 098.3807 272.0633 0001342 166.9727 330.0775 14.24341812795489 FENGYUN1 1 25730U 99025A 13302.17834657 .00003661 00000-0 20613-2 0 9970 2 25730 098.8911 260.1448 0028315 034.9839 095.3302 14.10792719744935 OKEAN-0 1 25860U 99039A 13301.98192818 .00000618 00000-0 99954-4 0 834 2 25860 098.0097 262.7773 0002125 096.8146 303.4465 14.74749183768075 NOAA-16 1 26536U 00055A 13302.47014623 .00000186 00000-0 12429-3 0 4180 2 26536 099.0256 356.4531 0011547 116.7240 346.1858 14.12934105675532 NOAA-17 1 27453U 02032A 13302.51503885 .00000282 00000-0 13893-3 0 3210 2 27453 098.3114 309.4690 0012803 129.3775 022.0544 14.24632666589849 NOAA-18 1 28654U 05018A 13302.46172610 .00000181 00000-0 12430-3 0 8155 2 28654 099.1187 272.7292 0014261 188.0287 331.0459 14.11882770435007 NOAA-19 1 33591U 09005A 13302.43609863 .00000251 00000-0 16271-3 0 9856 2 33591 098.9177 243.5178 0014885 053.6896 084.7656 14.11571032243434 HUBBLE 1 20580U 90037B 13302.51008569 .00003937 00000-0 26544-3 0 3638 2 20580 028.4693 111.9923 0003279 348.8998 049.7084 15.04077861 89935 ISS 1 25544U 98067A 13302.87474537 .00008158 00000-0 15264-3 0 9144 2 25544 051.6506 161.0128 0001750 106.0158 072.5389 15.49644471855599 CO-58 1 28895U 05043F 13302.09263971 .00001535 00000-0 31924-3 0 6083 2 28895 097.8521 150.7767 0017868 024.2647 335.9392 14.61288850426496 FALCON 1 30776U 07006E 13302.51493573 .00011457 00000-0 65686-3 0 7251 2 30776 035.4294 097.0608 0001270 006.2119 042.4116 15.11874306365751 MAST 1 31126U 07012K 13302.49692854 .00001728 00000-0 39128-3 0 8880 2 31126 097.8920 290.8379 0092553 354.7743 128.8827 14.54735011346847 CAPE1 1 31130U 07012P 13301.93251982 .00002504 00000-0 56954-3 0 8896 2 31130 097.9108 286.7274 0100347 013.0422 347.3335 14.53696311346209 COMPASS 1 32787U 08021E 13302.15669399 .00005655 00000-0 65115-3 0 7669 2 32787 097.7373 357.1722 0013798 218.4280 141.5954 14.86041635297853 AAUSAT2 1 32788U 08021F 13302.66014568 .00005151 00000-0 58631-3 0 7507 2 32788 097.7383 358.4048 0013321 215.9755 144.0565 14.86562517297977 DO-64 1 32789U 08021G 13302.51388804 .00009509 00000-0 99892-3 0 7841 2 32789 097.7546 002.8805 0013025 207.1360 262.1050 14.89613635298115 CO-66 1 32791U 08021J 13302.14549877 .00004526 00000-0 53477-3 0 7418 2 32791 097.7372 356.3391 0014271 220.6016 191.7233 14.85074948297757 RS-30 1 32953U 08025A 13302.63552686 .00000010 00000-0 00000 0 0 3340 2 32953 082.5036 344.5861 0017496 301.1792 058.7573 12.43038408246616 METEOR-M 1 35865U 09049A 13302.70046679 .00000006 00000-0 22116-4 0 9371 2 35865 098.5861 351.7067 0003318 051.8566 308.2905 14.21895731213588 RS-38 1 35869U 09049E 13302.71015867 .00000069 00000-0 50494-4 0 8920 2 35869 098.5802 351.5903 0005393 049.4678 310.6969 14.22151775213611 JUGNU 1 37839U 11058B 13302.14470865 .00000573 00000-0 16482-3 0 4915 2 37839 019.9605 215.0922 0018997 319.2235 185.6821 14.12194384105859 SRMSAT 1 37841U 11058D 13302.17363595 .00000510 00000-0 13688-3 0 4907 2 37841 019.9713 229.6267 0011758 267.8842 231.8322 14.10258125105712 RAX-2 1 37853U 11061D 13301.98942308 .00014683 00000-0 10736-2 0 6309 2 37853 101.6980 217.6428 0231365 003.5863 056.7998 14.84813618108296 AUBIESAT 1 37854U 11061E 13302.35841718 .00017062 00000-0 12171-2 0 6180 2 37854 101.7018 219.3453 0230815 000.7439 111.0596 14.85678118108377 HRBE 1 37855U 11061F 13302.45338398 .00016780 00000-0 12058-2 0 6255 2 37855 101.7021 219.1366 0231978 001.1657 059.3506 14.85266611108377 RS-39 1 38051U 11062C 13302.74021499 .00027463 00000-0 76066-3 0 9206 2 38051 051.6347 279.3425 0011742 038.4586 019.5828 15.36698867 98443 E-STAR 1 38079U 12006C 13302.83030611 .00106195 49468-5 18660-2 0 5646 2 38079 069.4707 216.3261 0553758 316.8631 148.1169 14.62107754 89301 GOLIAT 1 38085U 12006J 13302.76717047 .00092409 44929-5 16605-2 0 5028 2 38085 069.4727 219.8738 0565211 318.6737 037.2748 14.59264770 89209 HORYU-2 1 38340U 12025D 13301.82452802 .00001957 00000-0 32498-3 0 6490 2 38340 098.2325 250.7617 0011769 183.2262 176.8877 14.71288140 77762 RS-40 1 38736U 12041D 13302.34361306 .00000010 00000-0 00000 0 0 4096 2 38736 082.4773 071.4734 0021671 035.7221 324.5315 12.42872377 56910 PROITERES 1 38756U 12047B 13302.76743545 .00000916 00000-0 14599-3 0 2511 2 38756 098.2433 022.2224 0013617 041.9365 318.2886 14.74394202 61223 RAIKO 1 38852U 98067CN 13218.07382584 .24681979 12625-4 36599-3 0 3409 2 38852 051.6160 184.0336 0004489 261.9162 100.6538 16.48474690 47849 BEESAT-3 1 39134U 13015E 13302.88319711 .00005009 00000-0 39979-3 0 4064 2 39134 064.8765 145.2643 0003307 311.8843 048.1984 15.01349440 29044 BEESAT-2 1 39136U 13015G 13302.82344594 .00004430 00000-0 35632-3 0 3964 2 39136 064.8764 145.5040 0003237 311.2458 048.8380 15.01210529 29038 /EX